FW0598 Weather Reports


time (UTC)temp
F
wind
direction
speed
knots
gust
knots
rain 1hr
in
rain 24hr
in
rain mn
in
humidity
%
barometer
mb
20260504081510 56 154 0.0 0.0 0.00 0.06 0.06 83 1003.8
20260504080111 56 154 0.0 4.3 0.00 0.06 0.06 83 1003.8
20260504044554 67 149 0.0 5.2 0.00 0.06 0.06 76 1001.4
20260504043058 68 151 0.0 8.7 0.00 0.06 0.06 73 1001.3
20260504041533 68 171 2.6 11.3 0.00 0.06 0.06 73 1001.1
20260504040052 67 145 0.0 5.2 0.00 0.06 0.06 76 1001.3
20260504034508 66 150 0.0 5.2 0.00 0.06 0.06 80 1001.5
20260504033005 65 153 0.0 0.0 0.00 0.06 0.06 82 1001.7
20260504031544 64 157 0.0 0.0 0.00 0.06 0.06 87 1001.9
20260504030040 64 153 0.0 0.0 0.00 0.06 0.06 90 1002.1
20260504024521 63 150 0.0 0.0 0.00 0.06 0.06 92 1002.3
20260504023117 63 159 0.0 0.0 0.00 0.06 0.06 94 1002.5
20260504021556 62 355 0.0 4.3 0.01 0.06 0.06 96 1002.9
20260504020052 61 57 0.0 0.0 0.01 0.06 0.06 95 1003.3
20260504014531 61 110 0.0 0.0 0.01 0.06 0.06 96 1003.7
20260504013028 60 133 0.0 0.0 0.01 0.06 0.06 96 1003.8
20260504011508 60 53 0.0 0.9 0.00 0.06 0.06 96 1003.9
20260504010005 60 62 0.0 0.0 0.02 0.06 0.06 96 1004.0
20260504004550 59 65 0.0 0.0 0.02 0.06 0.06 96 1004.1
20260504003047 59 64 0.0 0.0 0.02 0.06 0.06 96 1004.5
20260504001520 59 64 0.0 0.0 0.03 0.06 0.06 96 1004.7
20260504000018 58 64 0.0 0.0 0.03 0.04 0.04 96 1004.7
20260503234558 58 64 0.0 0.0 0.03 0.04 0.04 96 1004.7
20260503233056 57 64 0.0 0.0 0.02 0.03 0.03 96 1004.7
20260503231533 56 64 0.0 0.0 0.02 0.02 0.02 95 1005.1
20260503230033 55 64 0.0 0.0 0.01 0.01 0.01 95 1005.0
20260503224609 53 64 0.0 0.0 0.01 0.01 0.01 95 1005.0
20260503223006 52 64 0.0 0.0 0.01 0.01 0.01 94 1005.0
20260503221553 52 64 0.0 0.0 0.00 0.00 0.00 94 1004.9
20260503220048 51 64 0.0 0.0 0.00 0.00 0.00 94 1004.9
20260503214527 51 64 0.0 0.0 0.00 0.00 0.00 94 1004.8
20260503213026 0 0.0 0.0 0.00 0.00 0.00 1004.8
20260503211502 0 0.0 0.0 0.00 0.00 0.00 1004.6
20260503210059 0 0.0 0.0 0.00 0.00 0.00 1004.5
20260503204540 0 0.0 0.0 0.00 0.00 0.00 1004.2
20260503203034 0 0.0 0.0 0.00 0.00 0.00 1004.2
20260503201511 0 0.0 0.0 0.00 0.00 0.00 1004.2
20260503200008 0 0.0 0.0 0.00 0.00 0.00 1004.0
20260503194544 0 0.0 0.0 0.00 0.00 0.00 1004.0
20260503193044 0 0.0 0.0 0.00 0.00 0.00 1003.9
20260503191519 53 64 0.0 0.0 0.00 0.00 0.00 93 1004.1
20260503190016 53 64 0.0 0.0 0.00 0.00 0.00 93 1004.2
20260503184554 53 64 0.0 0.0 0.00 0.00 0.00 94 1004.5
20260503183107 53 64 0.0 0.0 0.00 0.00 0.00 94 1004.4
20260503181529 53 64 0.0 0.0 0.00 0.00 0.00 94 1004.7
20260503180027 53 64 0.0 0.0 0.00 0.00 0.00 94 1004.9
20260503174508 52 64 0.0 0.0 0.00 0.00 0.00 93 1004.9
20260503173019 52 64 0.0 0.0 0.00 0.00 0.00 93 1005.0
20260503171546 52 64 0.0 0.0 0.00 0.00 0.00 93 1005.1